Location: Staunton
(38.1490°N, 79.0720°W)
Time: 03:30:26
(UTC-05:00)

ISS - Visible Passes

Search period start: 21 February 2019 00:00
Search period end: 03 March 2019 00:00
Orbit: 403 x 411 km, 51.6° (Epoch: 21 February)

Date Brightness Start Highest point End Pass type
(mag) Time Alt. Az. Time Alt. Az. Time Alt. Az.
22 Feb -1.7 05:58:16 10° SSW 06:01:05 27° SE 06:03:55 10° ENE visible
23 Feb -0.9 05:08:02 10° SSE 05:09:51 14° SE 05:11:39 10° E visible
24 Feb -3.8 05:52:00 15° SW 05:54:36 79° SE 05:57:52 10° NE visible
25 Feb -2.6 05:03:14 37° SE 05:03:14 37° SE 05:06:17 10° ENE visible
26 Feb -0.2 04:14:17 10° E 04:14:17 10° E 04:14:19 10° E visible
26 Feb -3.2 05:47:01 27° W 05:48:14 39° NNW 05:51:21 10° NE visible
27 Feb -2.5 04:57:53 36° NE 04:57:53 36° NE 04:59:59 10° NE visible
28 Feb -2.1 05:41:21 19° NW 05:41:59 20° NNW 05:44:30 10° NNE visible
01 Mar -1.5 04:52:00 19° NNE 04:52:00 19° NNE 04:53:17 10° NNE visible
02 Mar -1.5 05:35:17 12° NNW 05:35:51 12° NNW 05:37:20 10° N visible
